DW0793 Weather Reports


time (UTC)temp
F
wind
direction
speed
knots
gust
knots
rain 1hr
in
rain 24hr
in
rain mn
in
humidity
%
barometer
mb
20260507040303 53 71 0.0 0.0 0.00 0.40 0.00 90 1009.5
20260507035803 53 69 1.7 5.2 0.00 0.40 0.40 90 1009.4
20260507035306 53 68 2.6 7.0 0.00 0.40 0.40 91 1009.7
20260507034303 54 19 0.9 4.3 0.00 0.40 0.40 91 1010.2
20260507033803 54 17 0.9 5.2 0.00 0.40 0.40 91 1010.3
20260507033303 54 4 1.7 5.2 0.00 0.40 0.40 91 1010.2
20260507032803 54 321 0.0 4.3 0.00 0.40 0.40 90 1010.4
20260507030804 54 354 2.6 5.2 0.00 0.40 0.40 89 1010.0
20260507030303 54 346 0.0 4.3 0.00 0.40 0.40 89 1010.0
20260507025802 54 349 4.3 7.8 0.00 0.40 0.40 88 1010.0
20260507025306 54 307 0.0 2.6 0.00 0.40 0.40 88 1010.0
20260507024803 55 313 1.7 7.0 0.00 0.40 0.40 88 1010.0
20260507024303 55 306 0.0 0.0 0.00 0.40 0.40 89 1009.8
20260507023802 55 306 0.0 0.0 0.00 0.40 0.40 89 1009.9
20260507023302 55 306 0.0 0.0 0.00 0.40 0.40 89 1009.7
20260507022803 55 304 0.0 0.0 0.00 0.40 0.40 88 1009.7
20260507022306 55 305 1.7 4.3 0.00 0.40 0.40 88 1009.7
20260507021803 55 305 1.7 6.1 0.00 0.40 0.40 88 1009.9
20260507021303 55 301 1.7 8.7 0.00 0.40 0.40 89 1009.9
20260507020803 55 318 0.9 5.2 0.00 0.40 0.40 89 1010.1
20260507020303 55 321 0.0 4.3 0.00 0.40 0.40 90 1010.1
20260507015803 55 342 0.0 4.3 0.00 0.40 0.40 90 1010.1
20260507015306 55 345 0.9 2.6 0.00 0.40 0.40 90 1010.2
20260507014804 55 355 0.0 4.3 0.00 0.40 0.40 90 1010.4
20260507014303 55 345 1.7 7.8 0.00 0.40 0.40 91 1010.2
20260507013803 55 322 0.9 4.3 0.00 0.40 0.40 91 1010.3
20260507013303 56 331 3.5 6.1 0.00 0.40 0.40 91 1010.1
20260507012803 56 324 1.7 10.4 0.00 0.40 0.40 91 1010.2
20260507012306 56 5 2.6 7.8 0.00 0.40 0.40 91 1010.0
20260507011805 56 0 4.3 7.8 0.00 0.40 0.40 91 1010.0
20260507010807 57 0 6.1 10.4 0.00 0.40 0.40 91 1009.9
20260507010302 57 295 3.5 8.7 0.00 0.40 0.40 92 1009.7
20260507005803 58 304 0.0 5.2 0.00 0.40 0.40 92 1009.4
20260507005305 58 30 1.7 6.1 0.00 0.40 0.40 92 1009.3
20260507004802 58 349 2.6 5.2 0.00 0.40 0.40 92 1009.4
20260507004304 58 336 0.0 0.0 0.00 0.40 0.40 92 1009.2
20260507003803 58 337 1.7 5.2 0.00 0.40 0.40 92 1009.1
20260507003303 58 355 0.9 12.2 0.00 0.40 0.40 92 1008.9
20260507002805 59 345 1.7 8.7 0.00 0.40 0.40 92 1008.8
20260507002306 59 353 0.9 6.1 0.00 0.40 0.40 92 1008.7
20260507001803 59 24 2.6 6.1 0.00 0.40 0.40 92 1008.5
20260507001302 60 348 1.7 11.3 0.00 0.40 0.40 92 1008.3
20260507000803 61 352 6.1 13.9 0.00 0.40 0.40 92 1008.2
20260507000303 62 320 5.2 11.3 0.00 0.40 0.40 94 1008.1
20260506235803 62 277 0.0 0.0 0.00 0.40 0.40 94 1007.7
20260506235306 62 278 0.0 0.0 0.00 0.40 0.40 94 1007.7
20260506234802 62 272 0.0 0.0 0.00 0.40 0.40 95 1007.6
20260506234304 62 272 0.0 0.0 0.00 0.40 0.40 95 1007.6
20260506233803 62 271 0.0 5.2 0.00 0.40 0.40 96 1007.6
20260506232804 62 223 0.0 1.7 0.00 0.40 0.40 96 1007.6
20260506231804 63 221 0.0 4.3 0.00 0.40 0.40 96 1007.5
20260506231303 63 225 0.0 4.3 0.00 0.40 0.40 97 1007.6
20260506230802 63 224 0.9 4.3 0.00 0.40 0.40 97 1007.3
20260506230302 63 219 0.0 1.7 0.00 0.40 0.40 97 1007.3
20260506225802 63 217 0.0 0.0 0.00 0.40 0.40 97 1007.2
20260506224803 63 217 0.0 2.6 0.00 0.40 0.40 96 1007.0
20260506223303 63 217 0.0 0.0 0.00 0.40 0.40 97 1006.9
20260506222803 63 217 0.0 0.0 0.00 0.40 0.40 97 1007.1
20260506222305 64 219 0.0 0.0 0.00 0.40 0.40 97 1007.0
20260506221803 64 219 0.0 2.6 0.00 0.40 0.40 97 1006.9
20260506221303 64 218 0.0 0.0 0.00 0.40 0.40 96 1006.9
20260506220803 64 218 0.0 0.0 0.00 0.40 0.40 96 1006.9
20260506220303 64 218 0.0 0.0 0.00 0.40 0.40 96 1006.9
20260506215802 64 218 0.0 0.0 0.00 0.40 0.40 96 1006.7
20260506215305 64 218 0.0 0.0 0.00 0.40 0.40 96 1006.6
20260506214803 64 218 0.0 5.2 0.00 0.40 0.40 96 1006.6
20260506214304 64 215 0.0 0.0 0.00 0.40 0.40 96 1006.5
20260506213803 64 215 0.0 0.0 0.00 0.40 0.40 96 1006.4
20260506213302 64 215 0.0 6.1 0.00 0.40 0.40 96 1006.4
20260506212802 64 238 0.0 4.3 0.00 0.40 0.40 96 1006.3
20260506212306 64 238 0.0 7.0 0.00 0.40 0.40 97 1006.2
20260506211806 64 230 0.0 4.3 0.00 0.40 0.40 97 1006.3
20260506211304 64 251 0.0 4.3 0.00 0.40 0.40 98 1006.2
20260506210803 64 239 0.0 0.0 0.00 0.40 0.40 98 1006.2
20260506210303 64 238 0.0 2.6 0.00 0.40 0.40 98 1006.1
20260506205305 64 234 0.0 0.0 0.00 0.40 0.40 99 1006.1
20260506204803 64 225 0.0 0.0 0.00 0.40 0.40 99 1006.1
20260506203803 63 223 0.9 6.1 0.00 0.40 0.40 99 1006.2
20260506202803 63 219 0.9 6.1 0.00 0.40 0.40 99 1006.0
20260506202306 63 231 0.9 6.1 0.00 0.40 0.40 100 1005.9
20260506201805 63 222 0.0 2.6 0.00 0.40 0.40 100 1006.0
20260506201303 63 223 0.9 4.3 0.00 0.40 0.40 100 1006.0
20260506194803 62 258 0.0 1.7 0.00 0.40 0.40 100 1006.2
20260506194303 62 257 1.7 10.4 0.00 0.40 0.40 100 1006.2
20260506193803 62 227 0.0 2.6 0.00 0.40 0.40 100 1006.2
20260506192802 62 227 0.0 2.6 0.00 0.40 0.40 100 1006.2
20260506192305 62 227 0.0 2.6 0.00 0.40 0.40 100 1006.2
20260506191803 62 232 0.0 0.0 0.00 0.40 0.40 100 1006.2
20260506191303 62 232 0.0 7.0 0.00 0.40 0.40 100 1006.3
20260506190803 62 234 0.0 2.6 0.01 0.40 0.40 100 1006.4
20260506190303 61 230 1.7 7.8 0.01 0.40 0.40 100 1006.5
20260506185803 61 249 0.9 2.6 0.01 0.40 0.40 100 1006.5
20260506185306 61 248 1.7 6.1 0.01 0.40 0.40 100 1006.5
20260506184803 61 229 0.0 5.2 0.01 0.40 0.40 100 1006.5
20260506184303 61 235 0.0 0.0 0.01 0.40 0.40 100 1006.6
20260506183303 61 235 0.0 0.0 0.01 0.40 0.40 100 1006.6
20260506182803 61 235 0.9 6.1 0.01 0.40 0.40 100 1006.7
20260506182306 61 232 0.0 4.3 0.02 0.40 0.40 100 1006.7
20260506181803 61 233 0.0 4.3 0.02 0.40 0.40 100 1006.8
20260506180802 61 234 0.0 5.2 0.03 0.39 0.39 100 1006.8
20260506180303 60 235 0.0 0.0 0.03 0.39 0.39 100 1006.9
20260506175803 60 235 0.0 0.0 0.04 0.39 0.39 100 1006.9
20260506175306 60 235 0.9 4.3 0.04 0.39 0.39 100 1006.8
20260506174803 60 237 0.0 0.0 0.05 0.39 0.39 100 1006.8
20260506174303 60 237 0.0 0.0 0.05 0.39 0.39 100 1006.8
20260506173803 60 238 0.0 2.6 0.06 0.39 0.39 99 1006.8
20260506173303 60 238 0.0 0.0 0.07 0.39 0.39 99 1006.8
20260506172804 60 238 0.0 0.0 0.07 0.39 0.39 99 1006.8
20260506171303 60 238 0.0 0.0 0.07 0.37 0.37 99 1006.8
20260506170302 60 238 0.0 6.1 0.06 0.36 0.36 99 1006.9
20260506165305 60 223 0.0 0.0 0.05 0.35 0.35 99 1006.9
20260506164804 60 223 0.0 0.0 0.04 0.34 0.34 99 1006.9
20260506164303 60 223 0.0 0.0 0.04 0.34 0.34 99 1006.8
20260506163804 60 223 0.9 4.3 0.03 0.33 0.33 99 1006.8
20260506163303 60 216 0.0 6.1 0.03 0.32 0.32 99 1006.9
20260506162804 60 267 0.9 6.1 0.03 0.32 0.32 99 1006.9
20260506162306 60 259 0.9 6.1 0.04 0.31 0.31 99 1007.0
20260506161803 60 217 1.7 6.1 0.04 0.30 0.30 99 1006.9
20260506161303 60 243 0.9 5.2 0.05 0.30 0.30 99 1007.1
20260506160803 60 163 2.6 7.8 0.07 0.30 0.30 99 1007.0
20260506160303 60 230 1.7 8.7 0.09 0.30 0.30 99 1006.9
20260506155803 60 227 0.0 4.3 0.11 0.30 0.30 99 1006.9
20260506155306 60 226 0.0 7.0 0.13 0.30 0.30 99 1007.0
20260506154802 60 227 0.9 6.1 0.14 0.30 0.30 99 1007.0
20260506154302 60 326 0.0 0.0 0.14 0.30 0.30 98 1006.9
20260506153803 60 327 0.0 7.0 0.15 0.30 0.30 98 1006.9
20260506153303 60 236 0.9 2.6 0.14 0.29 0.29 99 1006.9
20260506152803 60 231 0.0 0.0 0.15 0.29 0.29 98 1007.0
20260506152305 60 228 0.0 5.2 0.14 0.27 0.27 98 1007.0
20260506151803 60 110 0.9 4.3 0.14 0.26 0.26 98 1007.0
20260506150804 60 200 0.9 4.3 0.13 0.23 0.23 98 1007.5
20260506150305 60 246 0.9 4.3 0.13 0.21 0.21 98 1007.8
20260506145803 61 251 0.0 4.3 0.11 0.19 0.19 98 1008.0
20260506145305 61 253 0.0 2.6 0.10 0.17 0.17 98 1007.9
20260506144803 61 252 0.9 4.3 0.09 0.16 0.16 98 1007.8
20260506144302 61 158 0.0 0.0 0.10 0.16 0.16 97 1007.6
20260506143803 61 158 0.0 0.0 0.09 0.15 0.15 97 1007.5
20260506143303 61 158 0.0 2.6 0.09 0.15 0.15 97 1007.3
20260506142803 61 211 0.0 4.3 0.08 0.14 0.14 97 1007.3
20260506142305 61 211 1.7 7.0 0.07 0.13 0.13 97 1007.5
20260506141803 61 239 0.0 7.0 0.06 0.12 0.12 97 1007.5
20260506140803 61 221 0.9 2.6 0.05 0.10 0.10 97 1007.4
20260506135803 61 206 0.0 0.0 0.04 0.08 0.08 96 1007.5
20260506135305 61 207 0.9 5.2 0.03 0.07 0.07 96 1007.6
20260506134303 61 232 0.0 4.3 0.03 0.06 0.06 96 1007.7
20260506132804 61 221 0.0 0.9 0.04 0.06 0.06 96 1007.6
20260506131802 61 219 0.0 0.0 0.05 0.06 0.06 95 1007.7
20260506131303 61 219 0.0 0.0 0.05 0.06 0.06 95 1007.7
20260506130804 61 218 0.0 2.6 0.04 0.05 0.05 95 1007.7
20260506130303 61 217 0.0 0.0 0.04 0.05 0.05 94 1007.9
20260506125803 61 217 0.0 0.0 0.04 0.04 0.04 94 1008.1
20260506125305 61 217 0.0 0.0 0.04 0.04 0.04 93 1008.0
20260506124802 61 217 0.0 0.0 0.03 0.03 0.03 93 1008.0
20260506124303 61 217 0.0 1.7 0.03 0.03 0.03 93 1008.0
20260506122803 62 217 0.9 5.2 0.02 0.02 0.02 91 1008.2
20260506122306 62 232 0.0 0.0 0.02 0.02 0.02 90 1008.0
20260506121802 62 232 0.0 0.0 0.01 0.01 0.01 90 1008.0
20260506121302 62 232 0.0 0.0 0.01 0.01 0.01 89 1008.0
20260506120802 62 232 0.0 0.0 0.01 0.01 0.01 88 1007.9
20260506120303 63 232 0.0 0.0 0.01 0.01 0.01 88 1008.0
20260506115803 63 232 0.0 1.7 0.00 0.00 0.00 87 1007.6
20260506115306 63 232 0.0 0.0 0.00 0.00 0.00 86 1007.6
20260506114803 63 232 0.0 0.0 0.00 0.00 0.00 86 1007.6
20260506114303 63 232 0.0 0.0 0.00 0.00 0.00 86 1007.7
20260506113803 63 232 0.0 0.0 0.00 0.00 0.00 86 1007.6
20260506113303 63 230 0.0 0.0 0.00 0.00 0.00 86 1007.6
20260506112803 63 230 0.0 0.0 0.00 0.00 0.00 86 1007.6
20260506112305 63 230 0.0 0.0 0.00 0.00 0.00 86 1007.5
20260506111803 63 230 0.0 0.0 0.00 0.00 0.00 85 1007.4
20260506111303 63 230 0.0 0.0 0.00 0.00 0.00 84 1007.4
20260506110804 63 230 0.0 0.0 0.00 0.00 0.00 83 1007.4
20260506110304 63 230 0.0 0.0 0.00 0.00 0.00 84 1007.5
20260506105802 63 230 0.0 0.0 0.00 0.00 0.00 83 1007.4
20260506105305 63 230 0.0 0.0 0.00 0.00 0.00 82 1007.4
20260506104803 63 232 0.0 0.0 0.00 0.00 0.00 82 1007.2
20260506104303 64 233 0.0 0.0 0.00 0.00 0.00 82 1007.0
20260506103803 64 233 0.9 2.6 0.00 0.00 0.00 81 1007.0
20260506103303 64 230 0.0 0.9 0.00 0.00 0.00 81 1007.0
20260506102803 64 230 0.0 0.0 0.00 0.00 0.00 80 1006.9
20260506101303 64 232 0.0 0.9 0.00 0.00 0.00 80 1006.9
20260506100803 64 234 0.9 4.3 0.00 0.00 0.00 80 1006.8
20260506100302 64 239 0.0 0.9 0.00 0.00 0.00 80 1006.8
20260506095802 63 239 0.9 4.3 0.00 0.00 0.00 79 1006.8
20260506095305 63 245 0.9 4.3 0.00 0.00 0.00 79 1006.8
20260506094803 63 241 0.0 0.0 0.00 0.00 0.00 79 1006.8
20260506094303 64 241 0.0 0.0 0.00 0.00 0.00 79 1006.9
20260506093804 64 241 0.0 0.0 0.00 0.00 0.00 78 1007.0
20260506093303 64 241 0.0 0.0 0.00 0.00 0.00 78 1007.0
20260506092803 64 241 0.0 0.0 0.00 0.00 0.00 77 1007.0
20260506091303 64 241 0.0 0.0 0.00 0.00 0.00 77 1007.0
20260506090803 64 241 0.0 0.0 0.00 0.00 0.00 77 1007.1
20260506090303 63 241 0.0 0.0 0.00 0.00 0.00 77 1007.1
20260506085305 63 241 0.0 0.0 0.00 0.00 0.00 77 1007.1
20260506084803 63 241 0.0 0.0 0.00 0.00 0.00 76 1007.0
20260506084302 63 241 0.0 0.0 0.00 0.00 0.00 76 1007.1
20260506083803 63 241 0.0 0.0 0.00 0.00 0.00 76 1007.1
20260506083303 63 241 0.0 0.0 0.00 0.00 0.00 76 1007.1
20260506082305 63 241 0.0 0.0 0.00 0.00 0.00 76 1007.2
20260506081802 63 241 0.0 0.0 0.00 0.00 0.00 76 1007.2
20260506081303 63 241 0.0 0.0 0.00 0.00 0.00 75 1007.1
20260506080302 63 241 0.0 0.0 0.00 0.00 0.00 75 1007.1
20260506073303 63 241 0.0 0.0 0.00 0.00 0.00 73 1007.2
20260506072803 63 241 0.0 1.7 0.00 0.00 0.00 73 1007.2
20260506072305 63 241 0.0 0.0 0.00 0.00 0.00 72 1007.3
20260506071805 63 241 0.0 0.0 0.00 0.00 0.00 72 1007.2
20260506071304 63 241 0.0 0.0 0.00 0.00 0.00 72 1007.2
20260506070803 63 241 0.0 0.0 0.00 0.00 0.00 73 1007.3
20260506070303 63 241 0.0 0.0 0.00 0.00 0.00 72 1007.5
20260506061803 65 241 0.0 0.0 0.00 0.00 0.00 68 1008.0
20260506061304 66 241 0.0 0.0 0.00 0.00 0.00 67 1008.1
20260506060303 66 241 0.0 0.0 0.00 0.00 0.00 66 1008.1
20260506051305 66 244 0.0 2.6 0.00 0.00 0.00 64 1008.5
20260506050803 66 242 0.0 1.7 0.00 0.00 0.00 64 1008.5
20260506050303 66 242 0.0 5.2 0.00 0.00 0.00 64 1008.5
20260506044803 66 233 0.9 5.2 0.00 0.00 0.00 63 1008.3
20260506044304 66 219 0.0 0.0 0.00 0.00 0.00 63 1008.3
20260506042805 66 218 0.0 1.7 0.00 0.00 0.00 63 1008.4
20260506042305 66 218 0.0 0.9 0.00 0.00 0.00 63 1008.4
20260506041803 67 223 0.0 2.6 0.00 0.00 0.00 63 1008.4
20260506041303 67 219 0.0 0.9 0.00 0.00 0.00 63 1008.4
20260506040812 67 220 0.0 0.9 0.00 0.00 0.00 63 1008.4